| time (UTC) | temp F | wind direction | speed knots | gust knots | rain 1hr in | rain 24hr in | rain mn in | humidity % | barometer mb |
| 20260505022537 | 65 | 261 | 9.6 | 18.2 | 0.00 | 0.00 | 0.00 | 63 | 1010.2 |
| 20260505022044 | 65 | 243 | 7.8 | 15.6 | 0.00 | 0.00 | 0.00 | 64 | 1010.3 |
| 20260505021523 | 65 | 295 | 10.4 | 14.8 | 0.00 | 0.00 | 0.00 | 63 | 1010.4 |
| 20260505021033 | 65 | 276 | 9.6 | 13.9 | 0.00 | 0.00 | 0.00 | 63 | 1010.3 |
| 20260505020542 | 66 | 271 | 7.8 | 13.0 | 0.00 | 0.00 | 0.00 | 63 | 1010.2 |
| 20260505020120 | 66 | 269 | 7.8 | 15.6 | 0.00 | 0.00 | 0.00 | 64 | 1010.3 |
| 20260505015549 | 67 | 297 | 8.7 | 15.6 | 0.00 | 0.00 | 0.00 | 62 | 1010.3 |
| 20260505015027 | 67 | 262 | 7.8 | 12.2 | 0.00 | 0.00 | 0.00 | 62 | 1010.2 |
| 20260505014536 | 68 | 274 | 7.8 | 14.8 | 0.00 | 0.00 | 0.00 | 62 | 1010.2 |
| 20260505014040 | 68 | 248 | 9.6 | 15.6 | 0.00 | 0.00 | 0.00 | 61 | 1010.3 |
| 20260505013547 | 69 | 257 | 7.0 | 15.6 | 0.00 | 0.00 | 0.00 | 62 | 1010.2 |
| 20260505013026 | 69 | 271 | 7.8 | 13.0 | 0.00 | 0.00 | 0.00 | 63 | 1010.2 |
| 20260505012535 | 69 | 259 | 7.8 | 13.0 | 0.00 | 0.00 | 0.00 | 63 | 1010.3 |
| 20260505012043 | 69 | 250 | 6.1 | 14.8 | 0.00 | 0.00 | 0.00 | 62 | 1010.3 |
| 20260505011551 | 70 | 278 | 8.7 | 14.8 | 0.00 | 0.00 | 0.00 | 62 | 1010.3 |
| 20260505011029 | 70 | 289 | 8.7 | 13.9 | 0.00 | 0.00 | 0.00 | 61 | 1010.2 |
| 20260505010538 | 70 | 240 | 8.7 | 13.0 | 0.00 | 0.00 | 0.00 | 58 | 1010.3 |
| 20260505010056 | 71 | 269 | 7.0 | 13.0 | 0.00 | 0.00 | 0.00 | 55 | 1010.3 |
| 20260505005547 | 71 | 277 | 7.8 | 13.0 | 0.00 | 0.00 | 0.00 | 54 | 1010.3 |
| 20260505005026 | 72 | 297 | 7.8 | 13.0 | 0.00 | 0.00 | 0.00 | 52 | 1010.2 |
| 20260505004533 | 72 | 250 | 6.1 | 10.4 | 0.00 | 0.00 | 0.00 | 53 | 1010.3 |
| 20260505004102 | 72 | 289 | 6.1 | 10.4 | 0.00 | 0.00 | 0.00 | 52 | 1010.3 |
| 20260505003530 | 72 | 250 | 4.3 | 7.8 | 0.00 | 0.00 | 0.00 | 52 | 1010.2 |
| 20260505003054 | 72 | 268 | 3.5 | 7.8 | 0.00 | 0.00 | 0.00 | 53 | 1010.2 |
| 20260505002601 | 72 | 261 | 4.3 | 7.8 | 0.00 | 0.00 | 0.00 | 53 | 1010.3 |
| 20260505002049 | 72 | 304 | 3.5 | 7.8 | 0.00 | 0.00 | 0.00 | 54 | 1010.3 |
| 20260505001528 | 71 | 304 | 3.5 | 8.7 | 0.00 | 0.00 | 0.00 | 56 | 1010.3 |
| 20260505001036 | 71 | 288 | 5.2 | 8.7 | 0.00 | 0.00 | 0.00 | 55 | 1010.3 |
| 20260505000544 | 71 | 278 | 5.2 | 7.8 | 0.00 | 0.00 | 0.00 | 57 | 1010.4 |
| 20260505000104 | 71 | 267 | 2.6 | 7.0 | 0.00 | 0.00 | 0.00 | 57 | 1010.4 |
| 20260504235524 | 71 | 326 | 4.3 | 7.0 | 0.00 | 0.00 | 0.00 | 55 | 1010.4 |
| 20260504235032 | 71 | 260 | 4.3 | 7.8 | 0.00 | 0.00 | 0.00 | 56 | 1010.4 |
| 20260504234540 | 71 | 313 | 5.2 | 8.7 | 0.00 | 0.00 | 0.00 | 55 | 1010.4 |
| 20260504234049 | 71 | 266 | 2.6 | 9.6 | 0.00 | 0.00 | 0.00 | 57 | 1010.4 |
| 20260504233527 | 71 | 291 | 3.5 | 9.6 | 0.00 | 0.00 | 0.00 | 57 | 1010.5 |
| 20260504233035 | 71 | 288 | 6.1 | 8.7 | 0.00 | 0.00 | 0.00 | 55 | 1010.4 |
| 20260504232544 | 71 | 302 | 4.3 | 10.4 | 0.00 | 0.00 | 0.00 | 57 | 1010.5 |
| 20260504232048 | 71 | 259 | 7.0 | 10.4 | 0.00 | 0.00 | 0.00 | 56 | 1010.5 |
| 20260504231527 | 72 | 304 | 6.1 | 9.6 | 0.00 | 0.00 | 0.00 | 56 | 1010.5 |
| 20260504231034 | 72 | 326 | 4.3 | 8.7 | 0.00 | 0.00 | 0.00 | 57 | 1010.5 |
| 20260504230710 | 72 | 263 | 5.2 | 8.7 | 0.00 | 0.00 | 0.00 | 58 | 1010.5 |
| 20260504230113 | 72 | 301 | 6.1 | 12.2 | 0.00 | 0.00 | 0.00 | 57 | 1010.5 |
| 20260504225543 | 72 | 307 | 5.2 | 12.2 | 0.00 | 0.00 | 0.00 | 56 | 1010.5 |
| 20260504225031 | 73 | 259 | 5.2 | 11.3 | 0.00 | 0.00 | 0.00 | 57 | 1010.4 |
| 20260504224531 | 73 | 286 | 4.3 | 10.4 | 0.00 | 0.00 | 0.00 | 55 | 1010.5 |
| 20260504224040 | 74 | 328 | 5.2 | 9.6 | 0.00 | 0.00 | 0.00 | 53 | 1010.5 |
| 20260504223549 | 75 | 239 | 1.7 | 7.0 | 0.00 | 0.00 | 0.00 | 54 | 1010.5 |
| 20260504223035 | 76 | 287 | 1.7 | 6.1 | 0.00 | 0.00 | 0.00 | 55 | 1010.6 |
| 20260504222544 | 76 | 314 | 3.5 | 7.0 | 0.00 | 0.00 | 0.00 | 49 | 1010.6 |
| 20260504222046 | 75 | 271 | 3.5 | 7.0 | 0.00 | 0.00 | 0.00 | 53 | 1010.6 |
| 20260504221543 | 75 | 270 | 2.6 | 7.0 | 0.00 | 0.00 | 0.00 | 52 | 1010.6 |
| 20260504221032 | 76 | 278 | 3.5 | 7.0 | 0.00 | 0.00 | 0.00 | 50 | 1010.6 |
| 20260504220540 | 77 | 288 | 2.6 | 6.1 | 0.00 | 0.00 | 0.00 | 50 | 1010.6 |
| 20260504220058 | 77 | 248 | 3.5 | 5.2 | 0.00 | 0.00 | 0.00 | 53 | 1010.7 |
| 20260504215540 | 77 | 269 | 3.5 | 4.3 | 0.00 | 0.00 | 0.00 | 54 | 1010.6 |
| 20260504215028 | 77 | 217 | 1.7 | 2.6 | 0.00 | 0.00 | 0.00 | 54 | 1010.7 |
| 20260504214536 | 77 | 86 | 0.9 | 3.5 | 0.00 | 0.00 | 0.00 | 57 | 1010.7 |
| 20260504214106 | 76 | 85 | 1.7 | 4.3 | 0.00 | 0.00 | 0.00 | 56 | 1010.7 |
| 20260504213524 | 76 | 235 | 0.0 | 5.2 | 0.00 | 0.00 | 0.00 | 59 | 1010.7 |
| 20260504213032 | 75 | 136 | 1.7 | 5.2 | 0.00 | 0.00 | 0.00 | 61 | 1010.8 |
| 20260504212537 | 75 | 337 | 0.9 | 4.3 | 0.00 | 0.00 | 0.00 | 57 | 1010.8 |
| 20260504212036 | 75 | 72 | 2.6 | 4.3 | 0.00 | 0.00 | 0.00 | 59 | 1010.9 |
| 20260504211525 | 75 | 281 | 0.9 | 3.5 | 0.00 | 0.00 | 0.00 | 60 | 1010.9 |
| 20260504211033 | 75 | 53 | 1.7 | 3.5 | 0.00 | 0.00 | 0.00 | 57 | 1010.9 |
| 20260504210533 | 75 | 58 | 1.7 | 2.6 | 0.00 | 0.00 | 0.00 | 55 | 1010.9 |
| 20260504210118 | 75 | 238 | 0.9 | 4.3 | 0.00 | 0.00 | 0.00 | 55 | 1010.9 |
| 20260504205534 | 75 | 222 | 1.7 | 3.5 | 0.00 | 0.00 | 0.00 | 58 | 1011.0 |
| 20260504205041 | 75 | 147 | 0.9 | 2.6 | 0.00 | 0.00 | 0.00 | 54 | 1011.0 |
| 20260504204530 | 74 | 102 | 1.7 | 2.6 | 0.00 | 0.00 | 0.00 | 55 | 1011.0 |
| 20260504204028 | 74 | 241 | 0.9 | 2.6 | 0.00 | 0.00 | 0.00 | 55 | 1011.0 |
| 20260504203536 | 73 | 200 | 0.9 | 5.2 | 0.00 | 0.00 | 0.00 | 59 | 1011.1 |
| 20260504203045 | 73 | 257 | 2.6 | 5.2 | 0.00 | 0.00 | 0.00 | 57 | 1011.0 |
| 20260504202532 | 74 | 285 | 1.7 | 4.3 | 0.00 | 0.00 | 0.00 | 56 | 1011.1 |
| 20260504202041 | 74 | 101 | 1.7 | 4.3 | 0.00 | 0.00 | 0.00 | 59 | 1011.1 |
| 20260504201540 | 73 | 102 | 0.9 | 3.5 | 0.00 | 0.00 | 0.00 | 61 | 1011.2 |
| 20260504201025 | 73 | 197 | 1.7 | 4.3 | 0.00 | 0.00 | 0.00 | 64 | 1011.2 |
| 20260504200534 | 73 | 84 | 0.9 | 4.3 | 0.00 | 0.00 | 0.00 | 65 | 1011.3 |
| 20260504200052 | 72 | 148 | 0.9 | 5.2 | 0.00 | 0.00 | 0.00 | 66 | 1011.2 |
| 20260504195532 | 72 | 166 | 1.7 | 5.2 | 0.00 | 0.00 | 0.00 | 62 | 1011.2 |
| 20260504195038 | 72 | 231 | 2.6 | 3.5 | 0.00 | 0.00 | 0.00 | 64 | 1011.2 |
| 20260504194527 | 71 | 145 | 0.9 | 4.3 | 0.00 | 0.00 | 0.00 | 64 | 1011.2 |
| 20260504194051 | 71 | 82 | 1.7 | 4.3 | 0.00 | 0.00 | 0.00 | 65 | 1011.2 |
| 20260504193529 | 71 | 91 | 0.9 | 5.2 | 0.00 | 0.00 | 0.00 | 65 | 1011.3 |
| 20260504193037 | 70 | 69 | 1.7 | 4.3 | 0.00 | 0.00 | 0.00 | 64 | 1011.4 |
| 20260504192546 | 70 | 32 | 0.0 | 6.1 | 0.00 | 0.00 | 0.00 | 66 | 1011.4 |
| 20260504192024 | 70 | 224 | 4.3 | 6.1 | 0.00 | 0.00 | 0.00 | 65 | 1011.3 |
| 20260504191532 | 70 | 274 | 2.6 | 3.5 | 0.00 | 0.00 | 0.00 | 66 | 1011.3 |
| 20260504191040 | 70 | 205 | 0.9 | 3.5 | 0.00 | 0.00 | 0.00 | 69 | 1011.2 |
| 20260504190539 | 70 | 148 | 0.9 | 2.6 | 0.00 | 0.00 | 0.00 | 68 | 1011.2 |
| 20260504190058 | 70 | 111 | 1.7 | 4.3 | 0.00 | 0.00 | 0.00 | 69 | 1011.3 |
| 20260504185529 | 70 | 97 | 1.7 | 4.3 | 0.00 | 0.00 | 0.00 | 66 | 1011.3 |
| 20260504185058 | 70 | 94 | 0.9 | 4.3 | 0.00 | 0.00 | 0.00 | 70 | 1011.3 |
| 20260504184545 | 69 | 148 | 1.7 | 3.5 | 0.00 | 0.00 | 0.00 | 68 | 1011.3 |
| 20260504184054 | 69 | 162 | 1.7 | 4.3 | 0.00 | 0.00 | 0.00 | 68 | 1011.4 |
| 20260504183527 | 68 | 141 | 0.9 | 5.2 | 0.00 | 0.00 | 0.00 | 72 | 1011.4 |
| 20260504183036 | 68 | 254 | 3.5 | 5.2 | 0.00 | 0.00 | 0.00 | 69 | 1011.4 |
| 20260504182545 | 68 | 244 | 2.6 | 4.3 | 0.00 | 0.00 | 0.00 | 69 | 1011.4 |
| 20260504182054 | 68 | 235 | 2.6 | 5.2 | 0.00 | 0.00 | 0.00 | 67 | 1011.4 |
| 20260504181600 | 68 | 253 | 1.7 | 5.2 | 0.00 | 0.00 | 0.00 | 66 | 1011.4 |
| 20260504181026 | 68 | 210 | 2.6 | 4.3 | 0.00 | 0.00 | 0.00 | 65 | 1011.6 |
| 20260504180553 | 68 | 230 | 1.7 | 4.3 | 0.00 | 0.00 | 0.00 | 64 | 1011.5 |
| 20260504180049 | 68 | 191 | 1.7 | 3.5 | 0.00 | 0.00 | 0.00 | 65 | 1011.6 |
| 20260504175540 | 68 | 250 | 1.7 | 3.5 | 0.00 | 0.00 | 0.00 | 66 | 1011.7 |
| 20260504175049 | 68 | 233 | 0.9 | 3.5 | 0.00 | 0.00 | 0.00 | 68 | 1011.6 |
| 20260504174528 | 68 | 96 | 2.6 | 3.5 | 0.00 | 0.00 | 0.00 | 66 | 1011.6 |
| 20260504174053 | 68 | 248 | 0.9 | 3.5 | 0.00 | 0.00 | 0.00 | 67 | 1011.6 |
| 20260504173540 | 68 | 136 | 0.9 | 3.5 | 0.00 | 0.00 | 0.00 | 68 | 1011.4 |
| 20260504173048 | 67 | 245 | 0.9 | 4.3 | 0.00 | 0.00 | 0.00 | 70 | 1011.4 |
| 20260504172528 | 67 | 246 | 2.6 | 4.3 | 0.00 | 0.00 | 0.00 | 66 | 1011.4 |
| 20260504172036 | 67 | 192 | 0.9 | 4.3 | 0.00 | 0.00 | 0.00 | 69 | 1011.4 |
| 20260504171525 | 66 | 134 | 0.9 | 4.3 | 0.00 | 0.00 | 0.00 | 68 | 1011.4 |
| 20260504171024 | 66 | 73 | 1.7 | 5.2 | 0.00 | 0.00 | 0.00 | 68 | 1011.4 |
| 20260504170531 | 66 | 149 | 2.6 | 5.2 | 0.00 | 0.00 | 0.00 | 68 | 1011.4 |
| 20260504151058 | 59 | 60 | 1.7 | 2.6 | 0.00 | 0.00 | 0.00 | 84 | 1011.2 |
| 20260504150537 | 59 | 58 | 1.7 | 2.6 | 0.00 | 0.00 | 0.00 | 84 | 1011.3 |
| 20260504141032 | 55 | 48 | 0.0 | 0.0 | 0.00 | 0.00 | 0.00 | 90 | 1010.7 |
| 20260504140540 | 55 | 60 | 0.0 | 0.0 | 0.00 | 0.00 | 0.00 | 89 | 1010.7 |
| 20260504140133 | 56 | 60 | 0.0 | 0.0 | 0.00 | 0.00 | 0.00 | 91 | 1010.6 |
| 20260504130557 | 51 | 61 | 0.0 | 0.9 | 0.00 | 0.00 | 0.00 | 92 | 1010.1 |
| 20260504120105 | 52 | 78 | 0.0 | 0.0 | 0.00 | 0.00 | 0.00 | 88 | 1010.0 |
| 20260504110532 | 53 | 78 | 0.0 | 0.0 | 0.00 | 0.00 | 0.00 | 83 | 1010.2 |
| 20260504100534 | 55 | 78 | 0.0 | 0.0 | 0.00 | 0.00 | 0.00 | 79 | 1010.3 |
| 20260504081529 | 55 | 84 | 0.0 | 0.0 | 0.00 | 0.00 | 0.00 | 81 | 1010.4 |
| 20260504081028 | 56 | 84 | 0.0 | 0.0 | 0.00 | 0.00 | 0.00 | 80 | 1010.3 |
| 20260504080606 | 56 | 84 | 0.0 | 0.0 | 0.00 | 0.00 | 0.00 | 79 | 1010.3 |
| 20260504080104 | 57 | 84 | 0.0 | 0.0 | 0.00 | 0.00 | 0.00 | 78 | 1010.3 |
| 20260504050527 | 66 | 237 | 0.0 | 2.6 | 0.00 | 0.00 | 0.00 | 56 | 1010.3 |
| 20260504045539 | 67 | 293 | 0.9 | 4.3 | 0.00 | 0.00 | 0.00 | 52 | 1010.4 |
| 20260504045047 | 67 | 300 | 0.9 | 4.3 | 0.00 | 0.00 | 0.00 | 53 | 1010.3 |
| 20260504044526 | 67 | 296 | 1.7 | 3.5 | 0.00 | 0.00 | 0.00 | 54 | 1010.3 |
| 20260504044035 | 66 | 305 | 1.7 | 3.5 | 0.00 | 0.00 | 0.00 | 54 | 1010.3 |
| 20260504043544 | 66 | 328 | 0.9 | 3.5 | 0.00 | 0.00 | 0.00 | 56 | 1010.3 |
| 20260504043043 | 66 | 288 | 1.7 | 2.6 | 0.00 | 0.00 | 0.00 | 56 | 1010.3 |
| 20260504042531 | 66 | 263 | 0.9 | 1.7 | 0.00 | 0.00 | 0.00 | 57 | 1010.3 |
| 20260504042039 | 66 | 271 | 0.9 | 2.6 | 0.00 | 0.00 | 0.00 | 56 | 1010.3 |
| 20260504041548 | 66 | 283 | 1.7 | 2.6 | 0.00 | 0.00 | 0.00 | 57 | 1010.3 |
| 20260504041029 | 67 | 243 | 0.9 | 3.5 | 0.00 | 0.00 | 0.00 | 57 | 1010.2 |
| 20260504040537 | 67 | 307 | 1.7 | 3.5 | 0.00 | 0.00 | 0.00 | 56 | 1010.3 |
| 20260504040054 | 67 | 316 | 0.9 | 3.5 | 0.00 | 0.00 | 0.00 | 56 | 1010.3 |
| 20260504035539 | 67 | 289 | 1.7 | 4.3 | 0.00 | 0.00 | 0.00 | 56 | 1010.2 |
| 20260504035049 | 67 | 282 | 0.9 | 3.5 | 0.00 | 0.00 | 0.00 | 57 | 1010.2 |
| 20260504034527 | 67 | 271 | 2.6 | 3.5 | 0.00 | 0.00 | 0.00 | 57 | 1010.2 |
| 20260504034035 | 68 | 316 | 0.9 | 2.6 | 0.00 | 0.00 | 0.00 | 57 | 1010.1 |
| 20260504033604 | 68 | 295 | 0.9 | 2.6 | 0.00 | 0.00 | 0.00 | 57 | 1010.0 |
| 20260504033023 | 68 | 261 | 0.0 | 2.6 | 0.00 | 0.00 | 0.00 | 57 | 1010.0 |
| 20260504032531 | 69 | 262 | 0.0 | 4.3 | 0.00 | 0.00 | 0.00 | 56 | 1010.0 |
| 20260504032040 | 69 | 277 | 1.7 | 4.3 | 0.00 | 0.00 | 0.00 | 55 | 1010.0 |
| 20260504031547 | 70 | 332 | 2.6 | 4.3 | 0.00 | 0.00 | 0.00 | 54 | 1010.1 |
| 20260504031026 | 71 | 290 | 0.9 | 4.3 | 0.00 | 0.00 | 0.00 | 53 | 1010.0 |
| 20260504030534 | 71 | 288 | 0.9 | 2.6 | 0.00 | 0.00 | 0.00 | 52 | 1010.1 |
| 20260504030055 | 72 | 291 | 0.9 | 2.6 | 0.00 | 0.00 | 0.00 | 50 | 1010.1 |
| 20260504025546 | 72 | 304 | 0.9 | 1.7 | 0.00 | 0.00 | 0.00 | 50 | 1010.1 |
| 20260504025026 | 73 | 252 | 0.9 | 1.7 | 0.00 | 0.00 | 0.00 | 49 | 1010.1 |
| 20260504024534 | 73 | 17 | 0.9 | 1.7 | 0.00 | 0.00 | 0.00 | 49 | 1010.1 |
| 20260504024042 | 73 | 279 | 1.7 | 2.6 | 0.00 | 0.00 | 0.00 | 49 | 1010.1 |
| 20260504023607 | 73 | 283 | 0.9 | 2.6 | 0.00 | 0.00 | 0.00 | 49 | 1010.2 |